Vorticity
6 9 5 8 14 14 19 14 12 9 9 9 3 4 3 3 6 6 6 8 7 7 7 7 7 7 6 5 5 5 8 7 4 5 6 6 10 18 13 4 7 8 6 6
7 10 8 11 6 13 12 16 16 7 10 10 13 9 9 7 8 8 6 4 4 4 4 5 5 5 6 6 6 6 6 6 7 6 8 15 17 8 5 6 6 8 10 10
9 3 9 19 6 9 10 8 11 15 12 7 7 8 8 8 8 8 8 8 9 9 8 8 7 6 7 6 6 6 5 5 6 12 16 8 5 6 7 9 11 8 7 9
3 3 5 7 9 6 3 3 5 9 6 5 6 8 11 10 8 8 8 9 8 7 6 6 5 6 6 5 5 7 9 14 15 8 6 6 8 11 11 7 7 10 9 7
6 3 2 5 5 6 6 8 5 5 8 6 6 5 5 6 5 6 7 6 6 6 6 6 6 5 7 12 17 15 9 7 7 8 11 12 10 7 8 10 10 8 5 2
3 5 1 2 5 4 6 2 7 5 7 7 7 7 8 9 11 12 11 11 11 13 14 13 11 8 7 6 5 5 7 10 10 9 9 8 8 9 9 8 5 3 3 8
6 6 2 1 5 5 3 6 3 3 4 4 7 8 9 9 9 8 8 9 9 10 9 9 9 9 8 9 9 9 8 8 8 8 8 7 7 6 4 2 4 7 9 9
6 6 3 1 1 2 6 7 4 4 4 4 4 4 5 6 7 8 9 11 10 10 10 9 9 9 9 9 10 9 10 8 6 5 5 5 7 10 12 9 9 10 12 10
5 7 7 9 9 5 9 8 9 7 5 4 6 6 5 4 5 5 6 7 8 9 9 10 11 11 12 10 10 8 6 6 9 14 15 16 15 11 9 7 11 10 9 10
13 11 14 15 13 11 9 10 10 10 8 9 7 7 7 7 8 9 8 8 9 9 9 10 10 11 10 10 10 15 17 16 12 12 13 10 7 6 8 9 10 9 5 8
12 5 17 12 13 11 10 10 10 11 12 13 13 12 10 8 8 9 9 8 9 10 10 8 8 9 11 12 10 8 9 13 12 8 6 8 8 9 9 6 3 10 6 9
10 3 15 1 8 11 13 13 14 13 12 11 9 10 11 12 10 11 10 10 12 12 13 15 13 12 11 13 15 14 10 8 9 10 9 8 7 6 7 8 9 9 8 9
3 4 7 3 3 5 6 9 12 14 14 13 12 12 11 11 12 11 11 14 16 15 17 16 15 13 13 14 11 10 11 10 8 7 7 6 9 7 9 9 9 10 14 14
0 3 7 6 9 4 5 4 5 5 6 9 8 7 10 12 14 15 15 16 17 17 17 17 16 16 16 14 9 8 8 6 6 6 10 9 10 9 10 12 12 15 16 14
2 4 8 7 5 4 3 3 5 6 5 6 9 11 12 12 13 14 14 14 16 17 18 20 16 10 3 3 7 7 8 9 10 9 10 10 13 14 15 15 12 10 8 5
3 1 2 2 3 5 5 3 3 4 4 4 6 7 12 13 14 15 15 17 16 11 6 4 4 2 4 5 8 9 8 4 9 12 14 16 15 15 11 9 11 10 8 9
6 6 11 10 9 7 6 6 3 7 10 10 11 11 11 13 12 12 13 13 12 8 5 5 8 9 11 13 7 5 12 16 19 14 13 14 12 8 9 10 7 8 9 8
26 25 20 17 16 16 15 18 20 16 18 20 25 23 19 14 14 16 19 15 12 12 12 12 11 9 7 15 22 20 15 10 12 13 13 8 10 9 6 5 7 7 6 6
20 24 25 25 19 20 21 22 20 26 22 17 17 19 19 18 17 15 14 13 10 8 6 7 12 18 19 13 9 9 11 13 12 8 8 10 7 6 6 5 5 6 8 8
40 39 30 23 23 33 23 21 21 13 11 14 12 10 10 10 12 14 12 13 11 13 18 20 17 12 9 9 11 12 11 10 11 10 6 6 4 4 5 5 6 8 9 9
-2 10 9 13 12 8 4 9 4 3 5 7 7 8 11 12 14 14 15 16 15 12 12 12 12 15 15 14 11 12 14 9 6 7 6 4 4 5 5 7 7 7 10 16
24 12 6 7 16 15 18 28 27 32 34 32 28 22 17 12 14 15 13 13 11 13 14 13 11 8 9 10 8 7 7 8 6 4 4 4 5 7 8 7 9 17 26 29
3 16 22 19 15 16 18 13 19 14 13 8 7 11 11 14 11 11 15 10 10 10 10 11 10 11 10 8 7 6 5 5 6 6 7 8 7 7 12 21 27 27 27 22
8 4 9 12 11 11 12 15 12 9 9 9 11 13 11 10 9 11 9 9 8 8 9 9 8 8 7 7 7 8 8 9 9 7 3 9 21 29 28 25 24 21 24 19
16 16 11 11 12 12 11 8 10 11 12 11 10 10 11 10 10 10 11 11 10 11 11 11 10 9 9 8 7 7 5 4 6 12 26 27 22 18 25 21 20 17 17 16
11 13 13 13 12 13 14 16 15 13 13 12 11 11 9 9 9 9 8 7 7 7 7 6 6 6 6 4 2 4 10 15 22 22 19 12 26 20 18 13 13 18 17 15
12 12 12 11 10 10 9 8 8 6 6 7 7 5 5 5 5 5 5 5 6 6 6 5 4 3 5 8 15 20 26 30 34 31 21 30 12 11 13 11 13 15 16 16
Height
5684 5683 5682 5681 5681 5683 5686 5689 5691 5699 5700 5705 5707 5709 5711 5713 5714 5715 5716 5717 5719 5719 5719 5720 5720 5721 5721 5721 5721 5721 5720 5718 5716 5715 5712 5710 5708 5704 5702 5699 5698 5695 5692 5690
5683 5683 5682 5683 5683 5684 5685 5688 5691 5692 5695 5699 5699 5700 5701 5701 5702 5704 5706 5707 5708 5709 5711 5712 5711 5712 5712 5711 5710 5709 5708 5706 5704 5702 5699 5696 5694 5692 5690 5687 5685 5682 5679 5677
5684 5680 5682 5684 5683 5682 5684 5685 5685 5687 5694 5689 5689 5689 5691 5693 5696 5698 5698 5699 5699 5700 5700 5700 5700 5700 5699 5698 5697 5695 5693 5690 5688 5687 5684 5682 5680 5678 5676 5674 5671 5669 5667 5664
5679 5678 5679 5681 5680 5679 5680 5681 5680 5682 5685 5682 5682 5682 5684 5685 5686 5687 5688 5688 5688 5688 5687 5687 5687 5686 5684 5683 5681 5680 5678 5676 5674 5672 5670 5669 5667 5664 5662 5660 5658 5656 5653 5651
5671 5671 5674 5676 5676 5674 5672 5676 5672 5676 5674 5675 5675 5675 5680 5675 5675 5677 5678 5676 5675 5674 5673 5674 5673 5671 5670 5669 5667 5665 5664 5662 5661 5659 5657 5655 5653 5651 5649 5646 5644 5642 5640 5637
5663 5661 5660 5668 5668 5664 5663 5667 5665 5662 5663 5663 5663 5665 5666 5664 5665 5664 5664 5665 5665 5663 5663 5661 5658 5656 5655 5654 5653 5651 5650 5648 5646 5644 5643 5641 5639 5637 5634 5631 5629 5626 5624 5622
5651 5648 5648 5658 5654 5655 5656 5657 5653 5652 5651 5650 5650 5651 5650 5650 5650 5650 5650 5649 5649 5648 5647 5646 5645 5643 5642 5640 5638 5637 5635 5633 5631 5629 5628 5626 5623 5621 5619 5616 5614 5611 5608 5605
5640 5638 5637 5640 5641 5644 5642 5640 5639 5640 5640 5640 5639 5637 5637 5636 5636 5636 5635 5635 5634 5633 5631 5630 5629 5628 5627 5625 5623 5621 5619 5617 5616 5614 5612 5610 5607 5605 5603 5600 5597 5595 5591 5587
5627 5628 5628 5627 5627 5624 5623 5625 5624 5624 5624 5623 5624 5623 5623 5624 5624 5623 5621 5620 5619 5618 5617 5616 5614 5612 5610 5609 5607 5605 5603 5601 5599 5598 5596 5594 5591 5589 5586 5584 5581 5577 5575 5571
5613 5616 5616 5617 5614 5611 5606 5604 5605 5606 5606 5606 5607 5607 5608 5607 5607 5608 5607 5605 5603 5602 5600 5599 5597 5596 5594 5592 5590 5588 5587 5585 5583 5581 5579 5576 5573 5571 5568 5566 5563 5559 5556 5552
5598 5600 5600 5599 5597 5595 5592 5591 5591 5590 5589 5590 5590 5590 5590 5589 5590 5590 5589 5587 5585 5584 5583 5582 5582 5580 5578 5576 5574 5572 5571 5569 5567 5565 5562 5560 5557 5554 5551 5547 5544 5539 5534 5532
5583 5582 5581 5581 5580 5579 5579 5578 5576 5574 5574 5573 5572 5572 5571 5571 5570 5571 5571 5569 5568 5567 5566 5565 5564 5563 5560 5559 5557 5556 5554 5552 5550 5548 5545 5542 5539 5535 5532 5527 5523 5518 5514 5511
5568 5565 5564 5563 5563 5561 5561 5562 5563 5563 5561 5559 5558 5556 5555 5553 5552 5551 5552 5550 5549 5547 5547 5547 5546 5544 5543 5542 5541 5538 5537 5535 5532 5529 5526 5523 5520 5516 5511 5506 5503 5497 5492 5489
5547 5545 5550 5549 5547 5545 5546 5545 5545 5545 5545 5544 5542 5540 5540 5538 5536 5535 5534 5532 5531 5530 5529 5528 5528 5527 5526 5525 5522 5521 5518 5516 5513 5510 5507 5503 5500 5496 5493 5489 5485 5480 5472 5468
5530 5528 5531 5532 5532 5530 5529 5529 5528 5528 5526 5525 5524 5523 5523 5522 5521 5520 5518 5516 5515 5514 5512 5511 5511 5510 5509 5508 5506 5503 5501 5498 5495 5491 5487 5483 5479 5476 5472 5468 5465 5463 5458 5451
5514 5513 5512 5513 5512 5512 5512 5511 5511 5510 5508 5507 5506 5506 5506 5505 5504 5503 5502 5501 5500 5498 5497 5496 5495 5494 5494 5492 5489 5486 5483 5480 5477 5473 5468 5464 5461 5458 5454 5450 5447 5443 5439 5432
5494 5494 5491 5493 5493 5494 5494 5493 5492 5491 5490 5490 5489 5489 5489 5488 5488 5487 5486 5485 5484 5483 5481 5480 5478 5477 5476 5474 5471 5468 5465 5461 5458 5456 5452 5448 5444 5440 5436 5432 5428 5423 5419 5412
5473 5473 5473 5473 5472 5473 5474 5474 5474 5474 5473 5473 5472 5472 5472 5472 5472 5471 5469 5468 5467 5466 5463 5461 5459 5458 5457 5454 5451 5449 5447 5444 5441 5439 5435 5431 5427 5423 5418 5413 5408 5403 5398 5393
5455 5455 5455 5454 5454 5454 5454 5455 5455 5455 5455 5456 5456 5456 5457 5456 5455 5454 5453 5451 5449 5447 5444 5444 5442 5440 5438 5434 5434 5433 5431 5428 5425 5422 5418 5414 5411 5406 5401 5395 5390 5384 5378 5372
5440 5439 5439 5439 5439 5439 5440 5440 5440 5440 5440 5440 5440 5440 5440 5439 5438 5436 5435 5433 5430 5428 5426 5425 5424 5423 5421 5419 5417 5416 5414 5412 5409 5406 5402 5398 5393 5389 5383 5377 5370 5364 5357 5349
5426 5426 5426 5427 5427 5428 5426 5426 5426 5424 5423 5423 5423 5422 5420 5419 5418 5417 5416 5415 5409 5411 5411 5409 5408 5407 5405 5403 5401 5400 5398 5395 5392 5389 5385 5380 5375 5370 5365 5358 5351 5343 5336 5329
5417 5417 5415 5415 5416 5416 5414 5414 5413 5411 5410 5408 5406 5404 5403 5402 5402 5402 5401 5399 5394 5394 5395 5394 5392 5391 5389 5387 5386 5383 5381 5378 5375 5371 5367 5362 5357 5352 5346 5338 5331 5324 5316 5309
5406 5405 5405 5404 5404 5403 5402 5401 5400 5398 5397 5394 5393 5391 5390 5388 5387 5387 5386 5382 5382 5381 5380 5378 5376 5374 5372 5371 5369 5366 5364 5360 5357 5353 5348 5343 5338 5332 5325 5319 5311 5304 5299 5293
5396 5395 5394 5393 5391 5390 5388 5387 5386 5384 5381 5380 5379 5376 5374 5373 5373 5370 5368 5368 5366 5365 5364 5362 5359 5357 5355 5354 5351 5348 5345 5342 5338 5333 5329 5323 5318 5312 5306 5300 5295 5289 5285 5280
5384 5382 5380 5379 5377 5375 5374 5372 5370 5368 5366 5365 5363 5360 5358 5356 5356 5356 5352 5350 5348 5347 5346 5344 5341 5339 5337 5335 5332 5330 5327 5323 5318 5313 5308 5303 5299 5295 5290 5286 5282 5277 5273 5268
5371 5370 5368 5366 5364 5362 5361 5359 5357 5354 5352 5351 5350 5345 5342 5339 5338 5337 5335 5333 5331 5329 5328 5326 5324 5320 5317 5314 5312 5309 5305 5301 5296 5293 5290 5288 5285 5282 5278 5274 5270 5266 5261 5257
5360 5358 5357 5354 5350 5348 5346 5344 5341 5339 5336 5333 5333 5329 5326 5323 5320 5318 5316 5314 5312 5309 5307 5305 5302 5299 5296 5293 5291 5287 5284 5281 5278 5276 5274 5273 5271 5269 5266 5263 5260 5256 5252 5248